• en Suisse
  • Liste des pays
  • À 7 jours
  • Température de l'eau
  • Carte satellitaire
  • Carte météo
  • Widgets météo
  • user-avatar
    Se connecter

    Météo par heure à Moklochno

    Ce jour, 24 Juin, Dimanche

    Heure Température Précipitation Vent Pression Humidité
    00:00 +13°C° 0 mm 1 m/s 752 mmHg 80%
    01:00 +13°C° 0 mm 1 m/s 752 mmHg 80%
    02:00 +13°C° 0 mm 1 m/s 751 mmHg 78%
    03:00 +13°C° 0,2 mm 2 m/s 751 mmHg 80%
    04:00 +12°C° 0,2 mm 2 m/s 751 mmHg 82%
    05:00 +12°C° 0,2 mm 2 m/s 751 mmHg 84%
    06:00 +11°C° 0,2 mm 3 m/s 750 mmHg 86%
    07:00 +11°C° 0,2 mm 3 m/s 750 mmHg 89%
    08:00 +11°C° 0 mm 3 m/s 750 mmHg 92%
    09:00 +12°C° 0,1 mm 4 m/s 750 mmHg 91%
    10:00 +12°C° 0,1 mm 4 m/s 749 mmHg 89%
    11:00 +13°C° 0,1 mm 5 m/s 749 mmHg 88%
    12:00 +13°C° 0,5 mm 5 m/s 748 mmHg 88%
    13:00 +13°C° 0,5 mm 5 m/s 748 mmHg 89%
    14:00 +14°C° 0,5 mm 5 m/s 748 mmHg 89%
    15:00 +13°C° 1,1 mm 5 m/s 747 mmHg 91%
    16:00 +13°C° 1,1 mm 5 m/s 747 mmHg 94%
    17:00 +13°C° 1,1 mm 4 m/s 747 mmHg 96%
    18:00 +13°C° 0,5 mm 4 m/s 747 mmHg 96%
    19:00 +13°C° 0,5 mm 3 m/s 747 mmHg 96%
    20:00 +13°C° 0,5 mm 3 m/s 747 mmHg 96%
    21:00 +12°C° 0 mm 3 m/s 747 mmHg 96%
    22:00 +12°C° 0 mm 3 m/s 747 mmHg 96%
    23:00 +11°C° 0 mm 3 m/s 747 mmHg 96%

    Demain, 25 Juin, Lundi

    Heure Température Précipitation Vent Pression Humidité
    00:00 +11°C° 0 mm 3 m/s 748 mmHg 96%
    01:00 +11°C° 0 mm 4 m/s 748 mmHg 96%
    02:00 +11°C° 0 mm 4 m/s 749 mmHg 95%
    03:00 +11°C° 0 mm 4 m/s 749 mmHg 94%
    04:00 +10°C° 0 mm 4 m/s 750 mmHg 94%
    05:00 +9°C° 0 mm 5 m/s 750 mmHg 93%
    06:00 +10°C° 0 mm 4 m/s 751 mmHg 90%
    07:00 +11°C° 0 mm 4 m/s 751 mmHg 87%
    08:00 +11°C° 0 mm 4 m/s 752 mmHg 84%
    09:00 +13°C° 0 mm 4 m/s 752 mmHg 75%
    10:00 +15°C° 0 mm 4 m/s 753 mmHg 66%
    11:00 +17°C° 0 mm 4 m/s 753 mmHg 57%
    12:00 +18°C° 0 mm 4 m/s 754 mmHg 54%
    13:00 +20°C° 0 mm 3 m/s 754 mmHg 50%
    14:00 +21°C° 0 mm 3 m/s 754 mmHg 46%
    15:00 +20°C° 0,1 mm 2 m/s 754 mmHg 51%
    16:00 +20°C° 0,1 mm 2 m/s 755 mmHg 56%
    17:00 +20°C° 0,1 mm 2 m/s 755 mmHg 62%
    18:00 +19°C° 0,3 mm 2 m/s 755 mmHg 68%
    19:00 +18°C° 0,3 mm 1 m/s 755 mmHg 75%
    20:00 +16°C° 0,3 mm 1 m/s 756 mmHg 82%
    21:00 +15°C° 0 mm 1 m/s 756 mmHg 85%
    22:00 +14°C° 0 mm 1 m/s 756 mmHg 89%
    23:00 +13°C° 0 mm 2 m/s 756 mmHg 92%

    Après-demain, 26 Juin, Mardi

    Heure Température Précipitation Vent Pression Humidité
    00:00 +12°C° 0 mm 2 m/s 757 mmHg 93%
    01:00 +12°C° 0 mm 2 m/s 757 mmHg 94%
    02:00 +10°C° 0 mm 2 m/s 757 mmHg 95%
    03:00 +12°C° 0 mm 1 m/s 758 mmHg 95%
    04:00 +12°C° 0 mm 1 m/s 758 mmHg 95%
    05:00 +12°C° 0 mm 1 m/s 758 mmHg 95%
    06:00 +14°C° 0 mm 2 m/s 758 mmHg 88%
    07:00 +15°C° 0 mm 2 m/s 759 mmHg 82%
    08:00 +17°C° 0 mm 2 m/s 759 mmHg 75%
    09:00 +18°C° 0 mm 2 m/s 759 mmHg 68%
    10:00 +19°C° 0 mm 2 m/s 759 mmHg 61%
    11:00 +21°C° 0 mm 2 m/s 760 mmHg 54%
    12:00 +21°C° 0,1 mm 2 m/s 760 mmHg 53%
    13:00 +23°C° 0,1 mm 2 m/s 760 mmHg 52%
    14:00 +23°C° 0,1 mm 2 m/s 760 mmHg 51%
    15:00 +23°C° 0,1 mm 2 m/s 760 mmHg 54%
    16:00 +23°C° 0,1 mm 2 m/s 760 mmHg 57%
    17:00 +21°C° 0,1 mm 2 m/s 760 mmHg 60%
    18:00 +21°C° 0 mm 1 m/s 760 mmHg 65%
    19:00 +20°C° 0 mm 1 m/s 760 mmHg 71%
    20:00 +17°C° 0 mm 0 m/s 760 mmHg 76%
    21:00 +16°C° 0 mm 0 m/s 761 mmHg 80%
    22:00 +14°C° 0 mm 0 m/s 761 mmHg 83%
    23:00 +13°C° 0 mm 0 m/s 761 mmHg 87%

    27 Juin, Mercredi

    Heure Température Précipitation Vent Pression Humidité
    00:00 +13°C° 0 mm 0 m/s 761 mmHg 88%
    01:00 +12°C° 0 mm 0 m/s 761 mmHg 89%
    02:00 +12°C° 0 mm 0 m/s 762 mmHg 90%
    03:00 +14°C° 0 mm 1 m/s 762 mmHg 88%
    04:00 +14°C° 0 mm 1 m/s 762 mmHg 87%
    05:00 +15°C° 0 mm 1 m/s 762 mmHg 85%
    06:00 +18°C° 0 mm 1 m/s 763 mmHg 77%
    07:00 +20°C° 0 mm 1 m/s 763 mmHg 69%
    08:00 +23°C° 0 mm 1 m/s 763 mmHg 61%
    09:00 +24°C° 0 mm 1 m/s 763 mmHg 56%
    10:00 +26°C° 0 mm 1 m/s 763 mmHg 51%
    11:00 +27°C° 0 mm 1 m/s 763 mmHg 45%
    12:00 +27°C° 0 mm 1 m/s 763 mmHg 45%
    13:00 +27°C° 0 mm 1 m/s 763 mmHg 45%
    14:00 +27°C° 0 mm 1 m/s 763 mmHg 44%
    15:00 +27°C° 0 mm 1 m/s 763 mmHg 45%
    16:00 +27°C° 0 mm 2 m/s 763 mmHg 46%
    17:00 +26°C° 0 mm 2 m/s 763 mmHg 46%
    18:00 +25°C° 0 mm 2 m/s 763 mmHg 54%
    19:00 +23°C° 0 mm 2 m/s 763 mmHg 62%
    20:00 +20°C° 0 mm 2 m/s 763 mmHg 70%
    21:00 +19°C° 0 mm 2 m/s 763 mmHg 72%
    22:00 +17°C° 0 mm 2 m/s 763 mmHg 73%
    23:00 +16°C° 0 mm 2 m/s 764 mmHg 75%

    28 Juin, Jeudi

    Heure Température Précipitation Vent Pression Humidité
    00:00 +15°C° 0 mm 2 m/s 764 mmHg 75%
    01:00 +15°C° 0 mm 2 m/s 764 mmHg 74%
    02:00 +14°C° 0 mm 1 m/s 764 mmHg 74%
    03:00 +15°C° 0 mm 1 m/s 764 mmHg 74%
    04:00 +15°C° 0 mm 1 m/s 763 mmHg 73%
    05:00 +15°C° 0 mm 1 m/s 763 mmHg 73%
    06:00 +18°C° 0 mm 2 m/s 763 mmHg 68%
    07:00 +20°C° 0 mm 2 m/s 763 mmHg 62%
    08:00 +23°C° 0 mm 2 m/s 763 mmHg 57%
    09:00 +24°C° 0 mm 2 m/s 763 mmHg 52%
    10:00 +26°C° 0 mm 2 m/s 762 mmHg 48%
    11:00 +28°C° 0 mm 2 m/s 762 mmHg 44%
    12:00 +28°C° 0 mm 2 m/s 762 mmHg 42%
    13:00 +29°C° 0 mm 2 m/s 761 mmHg 41%
    14:00 +29°C° 0 mm 2 m/s 761 mmHg 39%
    15:00 +29°C° 0 mm 2 m/s 760 mmHg 41%
    16:00 +29°C° 0 mm 3 m/s 760 mmHg 42%
    17:00 +29°C° 0 mm 3 m/s 759 mmHg 43%
    18:00 +27°C° 0 mm 3 m/s 759 mmHg 51%
    19:00 +25°C° 0 mm 2 m/s 758 mmHg 60%
    20:00 +24°C° 0 mm 2 m/s 758 mmHg 68%
    21:00 +23°C° 0 mm 2 m/s 758 mmHg 69%
    22:00 +20°C° 0 mm 3 m/s 758 mmHg 70%
    23:00 +19°C° 0 mm 3 m/s 757 mmHg 72%

    29 Juin, Vendredi

    Heure Température Précipitation Vent Pression Humidité
    00:00 +19°C° 0 mm 3 m/s 757 mmHg 73%
    01:00 +18°C° 0 mm 3 m/s 757 mmHg 74%
    02:00 +18°C° 0 mm 3 m/s 756 mmHg 76%
    03:00 +18°C° 0 mm 3 m/s 756 mmHg 76%
    04:00 +18°C° 0 mm 3 m/s 755 mmHg 77%
    05:00 +19°C° 0 mm 3 m/s 755 mmHg 78%
    06:00 +20°C° 0 mm 3 m/s 754 mmHg 73%
    07:00 +22°C° 0 mm 3 m/s 754 mmHg 68%
    08:00 +25°C° 0 mm 3 m/s 753 mmHg 64%
    09:00 +26°C° 0 mm 4 m/s 753 mmHg 60%
    10:00 +27°C° 0 mm 4 m/s 753 mmHg 56%
    11:00 +29°C° 0 mm 4 m/s 752 mmHg 53%
    12:00 +29°C° 0,1 mm 4 m/s 752 mmHg 54%
    13:00 +29°C° 0,1 mm 4 m/s 751 mmHg 56%
    14:00 +29°C° 0,1 mm 4 m/s 751 mmHg 58%
    15:00 +28°C° 0,4 mm 3 m/s 750 mmHg 66%
    16:00 +26°C° 0,4 mm 3 m/s 750 mmHg 74%
    17:00 +25°C° 0,4 mm 3 m/s 749 mmHg 82%
    18:00 +25°C° 0,3 mm 3 m/s 749 mmHg 84%
    19:00 +24°C° 0,3 mm 3 m/s 749 mmHg 85%
    20:00 +24°C° 0,3 mm 3 m/s 748 mmHg 86%
    21:00 +23°C° 0,4 mm 2 m/s 748 mmHg 89%
    22:00 +21°C° 0,4 mm 2 m/s 748 mmHg 91%
    23:00 +21°C° 0,4 mm 2 m/s 748 mmHg 94%
    Voir plus